Regional Weather Roundup
Issued by NWS Pendleton, OR

Home | Current Version | Previous Version | Text Only | Print | Product List | Glossary On
Versions: 1 2 3 4 5 6 7 8 9 10 11 12 13 14 15 16 17 18 19 20 21 22 23 24 25 26 27 28 29 30 31 32 33 34 35 36 37 38 39 40 41 42 43 44 45 46 47 48 49 50
000
ASUS46 KPDT 231825
RWRPDT
PENDLETON REGIONAL WEATHER ROUNDUP
NATIONAL WEATHER SERVICE PENDLETON OREGON
1000 AM PST SUN NOV 23 2014

NOTE: FAIR INDICATES FEW OR NO CLOUDS BELOW 12,000 FEET WITH NO
SIGNIFICANT WEATHER AND/OR OBSTRUCTIONS TO VISIBILITY.

# INDICATES UNOFFICIAL STATION AND DATA

WAZ520-231910-
EAST SLOPES OF WASHINGTON CASCADES

CITY            SKY/WX      TMP DP  RH  WIND    PRES   REMARKS
#BULLFROG 2SW   N/A         32  32  100 CALM    27.65S
#BUMPING DAM    N/A         33  N/A N/A S2      N/A
#CLE ELUM HS    N/A         35  34  96  CALM    30.03R
#CLE ELUM 2NW   N/A         35  34  96  CALM    N/A
#CLE ELUM LAKE  N/A         N/A N/A N/A W7      30.10F
#CLIFFDEL 2NW   N/A         34  33  96  W1      N/A
#GLENWOOD       N/A         49  40  71  S7      30.15F
#MANASTASH CYN  N/A         37  33  85  S2      30.01F
#NELSON         N/A         35  34  96  CALM    30.14R
#NELSON 3SW     N/A         32  31  96  CALM    30.33R
#NILE           N/A         34  33  96  W1      29.39S
#RONALD 2NW     N/A         35  33  92  CALM    29.91S
#SNOWDEN        N/A         45  32  60  NW2     N/A
#TEANAWAY 4NE   N/A         37  36  96  CALM    N/A
#TROUT LAKE HS  N/A         49  42  77  S2      N/A
#TROUT LAKE 1NE N/A         46  41  83  W6      30.21F
$$

WAZ521-231910-
SIMCOE HIGHLANDS

CITY            SKY/WX      TMP DP  RH  WIND    PRES   REMARKS
#BICKLETON HS   N/A         40  33  76  SW10    30.21S
#CENTERVILLE 4W N/A         46  40  79  W13     29.91F WCI 40
#CENTERVILLE 1SWN/A         47  38  71  W14     30.17F WCI 41
#GOLDENDALE     N/A         46  40  79  W13     N/A    WCI 40
#GOLDENDALE 1NE N/A         48  34  58  SW9     N/A
#GOLDENDALE 1S  N/A         47  40  76  SW10    30.13F
#GOODNOE HILLS  N/A         49  39  68  SW15    N/A    WCI 43
#LYLE 6NE       N/A         49  41  74  SW14    30.15F WCI 44
$$

WAZ026-231910-
KITTITAS VALLEY

CITY            SKY/WX      TMP DP  RH  WIND    PRES   REMARKS
ELLENSBURG AP   CLOUDY      40  34  79  NE7     30.06F
6HR MIN TEMP:   36; 6HR MAX TEMP:   41; 6HR PCP:  TRACE;

#ELLENSBURG CWU N/A         38  34  85  NE1     30.06F
#ELLENSBURG 3NE N/A         38  35  89  E2      30.06F
#ELLENSBURG     N/A         41  39  93  CALM    N/A
#ELLENSBURG 1E  N/A         37  33  85  CALM    N/A
#KITTITAS 4N    N/A         39  34  82  CALM    30.10F
#KITTITAS 3S    N/A         34  32  92  CALM    30.10S
#THORP 6N       N/A         39  35  85  CALM    30.12F
$$

WAZ027-231910-
YAKIMA VALLEY

CITY            SKY/WX      TMP DP  RH  WIND    PRES   REMARKS
SUNNYSIDE AP    MOCLDY      45  37  73  S18G25  30.12F WCI 37
YAKIMA AIRPORT  MOCLDY      40  31  70  NW3     30.10F
6HR MIN TEMP:   27; 6HR MAX TEMP:   40;

YAKIMA-VAGABOND PTCLDY      37  31  79  N5      30.11R
#DONALD 2NE     N/A         53  35  50  W1      28.95S
#GRANDVIEW      N/A         49  35  58  SW12    30.16F WCI 44
#MABTON         N/A         49  39  68  SE16G32 30.13F WCI 43
#NACHES 2SW     N/A         41  34  76  CALM    30.09S
#OUTLOOK DOT    N/A         N/A N/A N/A S5      N/A
#SELAH 8E       N/A         42  33  70  W5      N/A
#TERRACE HTS    N/A         46  36  68  S2      30.09F
#TOPPENISH      N/A         51  38  61  CALM    30.03F
#WAPATO 4NE     N/A         53  35  50  W1      28.95S
#WEST VALLEY    N/A         39  33  79  NW1     30.11F
#W YAKIMA       N/A         40  33  76  N2      30.15R
#WHITE SWAN 5E  N/A         53  36  52  E15G26  30.08F
#WILEY CITY 3W  N/A         40  31  70  CALM    30.10F
$$

WAZ028-231910-
LOWER COLUMBIA BASIN...WASHINGTON

CITY            SKY/WX      TMP DP  RH  WIND    PRES   REMARKS
PASCO           CLOUDY      51  36  56  SW22G33 30.18S
6HR MIN TEMP:   43; 6HR MAX TEMP:   51;

PROSSER AWOS    N/A         48  36  63  S20     30.15F WCI 41
RICHLAND AWOS   MOCLDY      50  36  58  SW24G29 30.16S
#BASIN CITY 5SW N/A         48  40  74  S7      30.11F
#BENTON CITY    N/A         47  37  68  S16G30  30.05F WCI 41
#CONNELL 5N     N/A         41  37  86  S7      30.16F
#CONNELL 5NW    N/A         42  38  86  S10     30.12F
#ELTOPIA 6NW    N/A         47  39  74  S13G29  29.08F WCI 41
#KAHLOTUS       N/A         44  37  76  W28G37  30.16F WCI 34
#KENNEWICK      N/A         32  32  100 CALM    27.65S
#KENNEWICK 3S   N/A         48  37  65  S10G26  30.17F
#PATERSON       N/A         51  38  61  SW12    30.18F
#PROSSER        N/A         47  34  60  S20G31  30.15F WCI 40
#SAGEMOOR 2W    N/A         49  39  68  NE15G26 29.99F WCI 43
#TOUCHET 2S     N/A         51  37  59  S15     30.18F
#WEST PASCO     N/A         51  38  61  N7      30.19S
$$

WAZ029-231910-
FOOTHILLS OF THE BLUES...WASHINGTON

CITY            SKY/WX      TMP DP  RH  WIND    PRES   REMARKS
WALLA WALLA AP  MOCLDY      49  34  56  S17     30.20F WCI 43
6HR MIN TEMP:   42; 6HR MAX TEMP:   49;

#COLLEGE PLACE  N/A         49  33  54  S7      30.23F
#DAYTON SCHOOL  N/A         47  29  49  SE15G31 30.19S WCI 41
#LOWDEN 2SE     N/A         52  36  54  SW7     30.18R
#PLEASANT VIEW 1N/A         41  37  86  S16     30.23S WCI 33
#PRESCOTT       N/A         46  38  73  S3      30.20F
#SUDBURY        N/A         52  N/A N/A CALM    N/A
#WHITMAN COLLEGEN/A         51  34  52  S10     30.27F
#WAITSBURG 5S   N/A         44  36  73  S20     30.32S WCI 36
#WAITSBURG 8N   N/A         44  23  43  S8      30.12S
#WALLA WALLA 5E N/A         48  34  58  S6      N/A
#WALLA WALLA U  N/A         51  36  56  SW6     30.22S
#WHITMAN MISSIONN/A         53  36  52  SW13G24 30.23S
$$

WAZ030-231910-
BLUE MOUNTAINS...WASHINGTON

CITY            SKY/WX      TMP DP  RH  WIND    PRES   REMARKS
#DIXIE 5SE      N/A         41  28  59  S21G33  30.11S WCI 32
$$

ORZ009-041-WAZ024-231910-
COLUMBIA RIVER GORGE

CITY            SKY/WX      TMP DP  RH  WIND    PRES   REMARKS
HOOD RIVER AP   PTCLDY      55  39  55  W6      30.18F
THE DALLES AP   PTCLDY      55  38  53  W13     30.19F
6HR MIN TEMP:   40; 6HR MAX TEMP:   55;

#ARLINGTON AIRPON/A         52  38  59  SW12    29.87F
#CELILO DOT     N/A         47  35  63  S1      N/A
#MARYHILL 2W    N/A         50  42  74  S2      N/A
#MOSIER 1S      N/A         53  30  41  SW6     30.21S
#MURDOCK        N/A         52  45  77  NW6     30.21F
#RUFUS DOT      N/A         50  37  61  NW13    N/A

$$

ORZ510-231910-
NORTH CENTRAL OREGON

CITY            SKY/WX      TMP DP  RH  WIND    PRES   REMARKS
#CHENOWITH 1W   N/A         48  37  65  W22     N/A    WCI 41
#COW CYN RST AREN/A         43  32  65  S12     N/A    WCI 37
#DUFUR 9E       N/A         46  36  68  SW17G29 30.27F WCI 39
#GRASS VALLEY   N/A         45  36  70  S10     N/A
#GRASS VALLEY 1SN/A         46  37  71  W21G32  30.23F WCI 38
#KENT DOT       N/A         43  27  53  SW18    N/A    WCI 35
#MAUPIN SCHOOL  N/A         53  38  57  SW6     29.11F
#MORO SCHOOL    N/A         48  40  74  SW7     30.19F
#SHANIKO 5WSW   N/A         38  25  59  S23     N/A    WCI 27
#SHANIKO 4NW    N/A         38  31  76  SW8     30.19S
#TYGH VALLEY 2NEN/A         51  38  61  S13     30.24F
#WAPANITIA AIRPON/A         47  37  68  W9      30.26F
#WASCO DOT      N/A         53  34  48  W7      N/A
#WASCO 5NE      N/A         49  38  66  SW10    30.20F
$$

ORZ511-231910-
CENTRAL OREGON

CITY            SKY/WX      TMP DP  RH  WIND    PRES   REMARKS
BEND AIRPORT    SUNNY       41  30  65  SW14    30.28S WCI 33
MADRAS AIRPORT  SUNNY       45  34  65  S15     30.27S WCI 38
PRINEVILLE AP   SUNNY       39  32  76  N5      30.29S
REDMOND AIRPORT SUNNY       42  31  65  SE6     30.27F
6HR MIN TEMP:   23; 6HR MAX TEMP:   42;

#BEND 6E        N/A         41  27  57  CALM    30.35R
#BEND 1SW       N/A         39  32  76  S6      N/A
#BEND-AWBREY    N/A         39  33  79  N7      30.35S
#BEND-KIM LN    N/A         41  33  73  SW7     30.24S
#CROOKED RVR RANN/A         45  34  65  W5      30.33F
#CULVER         N/A         45  33  63  S15G26  30.22F WCI 38
#LAKE BILLY CHINN/A         48   9  20  W5      30.28F
#POWELL BUTTE 3EN/A         39  30  70  E6      N/A
#POWELL BUTTE   N/A         46  31  56  W7      29.89R
#PRINEVILLE 3N  N/A         33  30  89  CALM    30.34F
#WARM SPRINGS   N/A         34  32  92  CALM    30.22F


ORZ509-231910-
EAST SLOPES OF OREGON CASCADES

CITY            SKY/WX      TMP DP  RH  WIND    PRES   REMARKS
#BLUE BOX PASS  N/A         36  -12 12  W2      N/A
#BLACK BUTTE RNCN/A         41  35  79  SE1     30.33F
#CAMP SHERMAN   N/A         42  33  70  SE2     30.35F
#LA PINE DOT    N/A         41  26  55  S2      N/A
#LA PINE 4NW    N/A         33  29  85  CALM    30.45S
#LAVA BUTTE DOT N/A         32  29  89  SE6     N/A
#MT BACHELOR-MIDN/A         23  22  96  S9      N/A
#SISTERS AIRPOR N/A         43  35  73  N22G36  29.91S WCI 34
#SISTERS ODOT   N/A         43  N/A N/A SE7     N/A
#SISTERS 3N     N/A         43  30  60  W5      30.27S
#SUNRIVER       N/A         38  33  82  S3      30.28S
#SUNRIVER AP    N/A         48  47  96  CALM    30.27S
#SUTTLE LK DOT  N/A         35  33  92  W39G71  N/A    WCI 20
#TUMALO 3W      N/A         40  32  73  CALM    30.24S
#WANOGA BUTTE D N/A         28  25  88  SW8     N/A

$$

ORZ044-231910-
LOWER COLUMBIA BASIN...OREGON

CITY            SKY/WX      TMP DP  RH  WIND    PRES   REMARKS
HERMISTON       MOCLDY      54  34  47  SW15    30.20F
6HR MIN TEMP:   46; 6HR MAX TEMP:   54;

#BOARDMAN 3W    N/A         54  36  50  SW13    29.88F
#ECHO 8SW       N/A         52  34  50  SW13    30.17F
#IONE SCHOOL    N/A         51  34  52  SW15    30.20F
#IRRIGON 4NW    N/A         53  36  52  S17     N/A
#UMATILLA SCHOOLN/A         54  41  61  SW2     30.16F
#UMATILLA       N/A         56  35  45  S13G25  30.16F
$$

ORZ507-231910-
NORTHERN FOOTHILLS OF THE BLUES

CITY            SKY/WX      TMP DP  RH  WIND    PRES   REMARKS
PENDLETON AIRPT MOCLDY      47  32  56  SW9     30.21S
6HR MIN TEMP:   39; 6HR MAX TEMP:   47;

#ADAMS 3WNW     N/A         45  36  70  SW7     30.26R
#ATHENA         N/A         45  36  70  S1      30.27S
#CAYUSE         N/A         49  33  54  SW8     30.24S
#HELIX SCHOOL   N/A         43  35  73  S8      30.25R
#HELIX 3N       N/A         43  36  76  S13     30.16R WCI 36
#HELIX 6SW      N/A         46  36  68  S8      30.19F
#HOLDMAN 5SE    N/A         49  39  68  SW2     30.20S
#HOLDMAN 6E     N/A         44  36  73  N12     30.04F WCI 38
#M-F FERNDALE   N/A         51  33  50  CALM    30.20S
#M-F GROVE ELEM N/A         49  34  56  CALM    30.20R
#M-FREEWATER 5SEN/A         49  34  56  CALM    30.21R
#PENDLETON DNTN N/A         51  30  44  SW8     29.03S
#PDT AQUATIC CTRN/A         52  35  52  S8      30.20S
#PENDLETON 5NE  N/A         49  36  61  SW6     30.17S
#PDT SUNRIDGE   N/A         50  34  54  S7      30.22F
#PENDLETON 7NW  N/A         48  36  63  W6      27.52R
#PILOT ROCK     N/A         48  27  44  S13     30.22F WCI 43
#TUTUILLA       N/A         50  34  54  S8      30.24F
#UMAPINE 2E     N/A         51  36  56  SE7     30.19R
#WESTON SCHOOL  N/A         46  31  56  W9      30.17S

$$

ORZ508-231910-
SOUTHERN FOOTHILLS OF THE BLUES

CITY            SKY/WX      TMP DP  RH  WIND    PRES   REMARKS
LEXINGTON       PTCLDY      52  34  50  S18G26  30.22F
#AJAX           N/A         45  28  51  S15G26  30.10S WCI 38
#CONDON SCHOOL  N/A         42  35  76  CALM    30.14F
#CONDON 5W      N/A         38  30  73  S15     30.16S WCI 29
#FOSSIL SCHOOL  N/A         44  32  62  SW7     30.19S
#HEPPNER EOC    N/A         48  33  56  E6      30.21F
#HEPPNER 4NE    N/A         45  32  60  S6      30.26S
#LEXINGTON 2SE  N/A         52  34  50  S9      30.17F
#MIKKALO        N/A         49  33  54  SW10    30.17F
#OLEX 4N        N/A         51  38  61  SW15G25 30.17F
#RUGGS 5NE      N/A         44  28  53  S17     30.36S WCI 36
#RUGGS 2SW      N/A         45  32  60  SW14    30.28F WCI 39

$$

ORZ502-503-231910-
BLUE MOUNTAINS

CITY            SKY/WX      TMP DP  RH  WIND    PRES   REMARKS
MEACHAM         MOCLDY      38  31  76  CALM    30.20S
6HR MIN TEMP:   35; 6HR MAX TEMP:   38;

#BATTLE MTN DOT N/A         31  31  100 S8      N/A
#HEPPNER 15SE   N/A         37  30  75  E3      30.11S
#LADD CYN SMT   N/A         36  23  59  E14     N/A    WCI 27
#LADD CREEK ODOTN/A         39  -4  15  S6      N/A
#LONG CREEK HS  N/A         39  32  76  S8      30.20S
#N POWDER DOT   N/A         37  29  72  SW2     N/A
#PIKES PEAK     N/A         39  29  67  SW26G36 27.99S WCI 28
#TOLLGATE       N/A         30  29  96  SW5     30.06R
#TROY SCHOOL    N/A         43  37  79  NW2     30.11R
#UKIAH          N/A         35  31  85  CALM    30.35F
#WESTON 4E      N/A         40  31  70  S9      30.22S
$$

ORZ505-231910-
JOHN DAY BASIN

CITY            SKY/WX      TMP DP  RH  WIND    PRES   REMARKS
JOHN DAY        MOCLDY      42  31  65  S13     30.27F WCI 35
#DAYVILLE SCHOOLN/A         42  28  57  S15G25  30.23F WCI 34
#MONUMENT HS    N/A         35  31  85  CALM    30.27F
#MT. VERNON 5SE N/A         39  28  64  S7      30.22R
#WINLOCK        N/A         41  33  73  W6      30.30F
$$

ORZ506-231910-
OCHOCO AND JOHN DAY HIGHLANDS

CITY            SKY/WX      TMP DP  RH  WIND    PRES   REMARKS
#BUCK CREEK DOT N/A         36  33  89  SE6     N/A
#HORSE RIDGE DO N/A         40  27  59  S7      N/A
#KEYES SMT DOT  N/A         38  26  62  W7      N/A
#PAULINA SCHOOL N/A         37  30  75  SW7     30.27S
#PINE MTN OBS   N/A         26  25  96  SE13    N/A    WCI 15
#PRAIRIE CITY   N/A         34  28  78  CALM    30.42F
#SENECA         N/A         31  N/A N/A SE6     N/A
#SENECA 9NW     N/A         26  25  96  CALM    30.40R
$$

ORZ049-231910-
GRANDE RONDE VALLEY

CITY            SKY/WX      TMP DP  RH  WIND    PRES   REMARKS
LA GRANDE       CLOUDY      45  27  49  S6      30.22F
#COVE           N/A         43  37  79  S1      30.03S
#COVE SCHOOL    N/A         43  32  65  CALM    30.19F
#COVE 6NW       N/A         42  34  73  CALM    30.33F
#ELGIN 3N       N/A         43  30  60  S8      29.92F
#ELGIN 1E       N/A         44  33  65  CALM    N/A
#IMBLER SCHOOL  N/A         41  32  70  SW3     30.18R
#ISLAND CITY 4N N/A         49  47  93  SW1     30.24F
#LADD CYN DOT   N/A         40  27  59  SE12    N/A    WCI 33
#UNION 1S       N/A         43  33  67  SE3     30.22S
$$

ORZ050-231910-
WALLOWA COUNTY

CITY            SKY/WX      TMP DP  RH  WIND    PRES   REMARKS
JOSEPH AIRPORT  CLOUDY      37  27  67  CALM    30.21S
#ENTERPRISE AP  N/A         36  26  67  E7      30.12R
#ENTERPRISE HS  N/A         38  30  73  E3      30.20R
#IMNAHA SCHOOL  N/A         44  30  58  S8      30.23F
#IMNAHA 10S     N/A         38  28  67  S3      30.21S
#JOSEPH 3N      N/A         36  28  72  E12     30.20R WCI 28
#JOSEPH 3W      N/A         40  27  59  E1      30.01R
#LOSTINE        N/A         42  27  55  CALM    30.06S
#MT HOWARD 8000 N/A         22  17  81  W10G25  30.09R
#PROMISE 1S     N/A         35  30  82  NE3     30.37S
#SHEEP RDG 7000 N/A         24  20  84  CALM    30.37R
#WALLOWA SCHOOL N/A         43  30  60  CALM    31.23S



$$



USA.gov is the U.S. government's official web portal to all federal, state and local government web resources and services.